This is the latest recevied weather packets stored in our database for station/object KJ5JYX. If no packets are shown the sender has not sent any weather packets the latest 10 day(s).
| Time | Temp. | Humidity | Pressure | Rain* | Wind** | Luminosity | Snow |
|---|---|---|---|---|---|---|---|
| 1778093044 | 15° C | 94% | 1015.2 hPa | 0 mm | - | 67 W/m² | - |
| 1778092741 | 15° C | 95% | 1015.4 hPa | 0 mm | - | 44 W/m² | - |
| 1778092436 | 15° C | 96% | 1014.9 hPa | 0 mm | - | 90 W/m² | - |
| 1778092134 | 15° C | 96% | 1015.1 hPa | 0 mm | - | 70 W/m² | - |
| 1778091831 | 15° C | 97% | 1015.2 hPa | 0 mm | - | 76 W/m² | - |
| 1778091528 | 15.56° C | 98% | 1014.9 hPa | 0 mm | - | 89 W/m² | - |
| 1778091226 | 15° C | 98% | 1015 hPa | 0 mm | - | 91 W/m² | - |
| 1778090923 | 15° C | 98% | 1015.1 hPa | 0 mm | - | 115 W/m² | - |
| 1778090619 | 15° C | 98% | 1014.8 hPa | 0 mm | - | 104 W/m² | - |
| 1778090315 | 15° C | 98% | 1015 hPa | 0 mm | - | 69 W/m² | - |
| 1778090012 | 15.56° C | 97% | 1014.9 hPa | 0 mm | - | 83 W/m² | - |
| 1778089710 | 15.56° C | 98% | 1014.7 hPa | 0 mm | - | 66 W/m² | - |
| 1778089407 | 15.56° C | 97% | 1015 hPa | 0 mm | - | 50 W/m² | - |
| 1778089104 | 16.11° C | 98% | 1014.7 hPa | 0 mm | - | 128 W/m² | - |
| 1778088801 | 15.56° C | 98% | 1014.4 hPa | 0 mm | - | 151 W/m² | - |
| 1778088498 | 16.11° C | 98% | 1014.5 hPa | 0 mm | - | 133 W/m² | - |
| 1778088195 | 16.11° C | 98% | 1014.4 hPa | 0 mm | - | 178 W/m² | - |
| 1778087892 | 16.11° C | 98% | 1014.3 hPa | 0 mm | - | 190 W/m² | - |
| 1778087589 | 16.11° C | 99% | 1014.3 hPa | 0 mm | - | 188 W/m² | - |
| 1778087287 | 16.11° C | 98% | 1014.3 hPa | 0 mm | - | 202 W/m² | - |
| 1778086983 | 16.11° C | 99% | 1014.3 hPa | 0 mm | - | 174 W/m² | - |
| 1778086682 | 16.11° C | 99% | 1014.1 hPa | 0 mm | - | 199 W/m² | - |
| 1778086379 | 16.11° C | 99% | 1014.1 hPa | 0 mm | - | 296 W/m² | - |
| 1778086075 | 16.67° C | 99% | 1014 hPa | 0 mm | - | 160 W/m² | - |
| 1778085772 | 16.67° C | 99% | 1013.9 hPa | 0 mm | - | 227 W/m² | - |
* Rain latest hour (hover to see other rain measurements)
** Current wind speed in m/s (hover to see current wind gust speed)